Погода в Адлере

Россия / Краснодарский край     43°26′36″N   39°54′37″E
темп.,
°C
ветер,
м/с
пор.,
м/с
влажн.,
%
обл.,
%
осадки,
мм/ч
давл.,
гПа
погр.,
м
22 сентября, ср
ср2200:00+15св1288100 1.3 101553
03:00+15ссв1193100 3.4 101460
06:00+15всв019067 1.4 101497
09:00+16з3389100 3.9 1014361
12:00+17зсз3375100 0.5 1014638
15:00+16з4365100 0.6 1014783
18:00+13з128199 0.3 1015240
21:00+11св128445 0.3 1016162
23 сентября, чт
чт2300:00+10св228353 0.0 101562
03:00+12св1277100 0.0 101474
06:00+12св2275100 0.0 101378
09:00+15сз1267100 0.0 1012298
12:00+14ссв2272100 0.2 1011233
15:00+17сз456199 0.1 1008572
18:00+15зсз347597 0.1 1009218
21:00+13ссв227689 0.1 1009103
24 сентября, пт
пт2400:00+12св1294100 2.1 1011100
03:00+12с2292100 3.9 1011139
06:00+11ссв2387100 0.2 1013134
09:00+14сз12732 0.2 1014390
12:00+17з33545 0.0 10151046
15:00+16з326036 0.1 10161028
18:00+12з017927 0.2 1017184
21:00+11в2278100 0.4 101877
25 сентября, сб
сб2500:00+11в238391 0.8 101895
03:00+11вюв2486100 1.1 1018214
06:00+11вюв3692100 3.6 1017298
09:00+11юв4895100 15.5 1017446
12:00+12ююв4898100 24.6 1017549
15:00+12ююв2497100 57.3 1019315
18:00+12с118741 0.8 102023
21:00+11в118882 1.6 102228
26 сентября, вс
вс2600:00+10всв228742 0.6 102258
03:00+10всв228675 0.6 102375
06:00+11всв228285 0.1 102473
09:00+15вюв01694 0.1 1024376
12:00+17ююз226412 0.1 10241077
15:00+17ююз226965 0.3 1023872
18:00+14всв11839 0.1 1023123
21:00+12всв22853 0.1 102359